Weather in Nazherovo

Russia / Ivanovo Oblast     57°06′43″N   39°55′40″E
temp.,
°C
wind,
m/s
gust,
m/s
humid.,
%
clouds,
%
prec.,
mm/h
press.,
hPa
HPBL,
m
3 march, wed
wed300:00−5nnw5128871 0.3 1008463
03:00−8nw5129239 0.3 1011379
06:00−8nw5129485 0.0 1011413
09:00−8nw5129293 0.1 1012500
12:00−4wnw6109181 0.0 1011677
15:00−1wnw599190 0.2 1010908
18:00−1w61292100 0.2 1008788
21:00−2w61292100 0.4 1006799
4 march, thu
thu400:00−2wsw61394100 0.1 1002709
03:00−1wsw61394100 0.4 999673
06:00+1w81498100 1.3 995894
09:00−1wnw8138697 2.6 9951131
12:00−3wnw8128741 0.0 997916
15:00−3wnw698570 0.1 998917
18:00−5wnw4893100 0.1 999278
21:00−8nw339795 0.3 100173
5 march, fri
fri500:00−11nnw239764 0.0 100224
03:00−13nnw239533 0.0 100321
06:00−14nw22960 0.0 100420
09:00−11w239537 0.0 1005111
12:00−6w238981 0.0 1005314
15:00−5sw239290 0.3 1007343
18:00−7wnw3693100 0.7 1008151
21:00−11nw239358 0.7 101036
6 march, sat
sat600:00−12wnw359686 0.1 101287
03:00−14nw349687 0.2 101494
06:00−19nw34998 0.0 101569
09:00−17nw359528 0.0 1016185
12:00−13wnw359277 0.1 1016406
15:00−10wnw368588 0.1 1015799
18:00−12w2395100 0.1 101457
21:00−14wsw339589 0.1 101342
7 march, sun
sun700:00−14ssw379490 0.0 1010123
03:00−12ssw5119272 0.0 1006333
06:00−9ssw71491100 0.3 1000793
09:00−6ssw81494100 1.1 995990
12:00−4sw81393100 2.1 9921003
15:00−7wnw51069100 3.4 9911043
18:00−12sw117794 0.0 99221
21:00−11s359397 0.1 993115